Theta_e
305 305 307 306 307 295 300 301 297 299 301 300 295 298 297 295 292 290 294 297 297 298 300 303 304 307 308 313 322 325 326 327 328 329 330 331 333 335 336 336 336 337 338 339 340 341 341 343 344 345 345 347 346 347 347 347 347 349 349 350 349 349 349
305 308 307 308 308 303 300 297 300 303 305 302 296 287 291 290 285 288 294 293 291 293 291 301 302 302 305 308 321 324 326 327 327 329 330 331 332 334 336 337 337 338 339 339 340 342 343 343 345 345 346 348 348 348 348 348 347 347 349 350 349 349 348
305 308 307 304 308 308 304 302 305 301 291 294 294 293 287 285 286 286 290 294 294 293 294 298 299 302 302 304 318 323 324 326 327 328 330 332 333 334 335 335 336 338 339 339 340 341 344 344 346 347 348 349 350 350 350 350 348 349 349 350 351 351 350
304 305 304 296 300 306 306 305 304 303 298 296 292 295 291 291 285 289 287 292 290 298 296 300 301 303 304 304 308 322 324 326 327 328 330 331 332 333 334 335 337 338 339 340 340 341 342 344 345 347 348 350 350 351 351 350 351 350 350 350 351 350 350
302 297 300 299 301 299 299 299 299 301 301 299 298 298 293 290 287 286 287 287 291 297 303 305 304 304 305 305 304 320 325 327 328 329 330 331 332 333 335 336 337 338 339 340 341 341 343 345 347 348 349 349 350 351 351 352 350 350 350 351 351 351 351
296 297 304 305 304 304 301 299 297 300 297 293 293 289 298 295 291 285 287 288 293 302 308 307 306 307 307 307 307 313 325 327 328 329 330 331 332 333 335 336 337 338 339 340 341 342 342 343 345 346 349 350 351 351 352 352 352 351 351 351 351 352 352
297 302 305 307 308 306 305 302 298 302 299 296 294 288 290 295 293 299 294 289 293 303 308 308 308 308 308 308 308 308 324 327 328 329 331 332 333 333 335 336 338 339 339 340 341 341 341 342 344 346 348 349 351 352 352 353 352 352 353 352 352 352 352
302 306 308 307 307 307 304 303 301 301 299 299 298 295 292 294 293 292 291 290 292 301 308 308 309 309 310 309 308 307 323 327 328 329 330 331 331 333 335 336 337 338 339 340 340 340 340 341 343 345 346 349 350 352 353 353 353 353 353 353 353 352 352
293 297 300 301 305 305 302 302 302 302 303 302 298 299 296 294 293 294 289 286 293 300 311 308 308 309 308 307 308 311 322 326 328 328 329 330 331 332 333 334 335 337 338 339 339 340 340 341 343 344 345 347 349 351 353 354 354 355 355 355 354 353 352
285 287 287 289 293 297 302 304 303 302 301 300 297 294 294 289 294 295 291 289 296 301 305 305 306 306 306 306 309 314 321 325 327 327 328 329 330 331 332 333 334 335 336 338 339 339 340 342 343 344 345 347 349 351 352 355 355 355 355 356 355 354 353
288 291 294 300 301 300 298 301 302 302 301 302 300 296 291 291 292 294 295 297 297 300 302 303 305 304 304 304 307 315 320 324 326 327 328 329 329 330 331 332 334 335 335 337 338 339 340 341 343 345 345 346 348 350 351 354 356 356 356 356 355 354 354
293 294 294 298 300 298 301 301 301 303 302 300 299 296 295 295 294 289 297 299 298 299 302 303 304 307 310 312 313 314 320 323 325 326 328 336 329 330 331 332 332 333 335 336 337 338 339 340 343 346 347 347 348 349 350 353 355 356 357 357 356 355 354
292 293 294 297 299 302 304 304 302 301 302 300 298 297 298 300 296 293 298 300 299 300 303 304 305 308 314 317 318 317 321 324 324 325 327 329 328 329 329 330 332 333 334 335 337 338 339 340 342 345 347 348 349 350 351 352 354 355 357 357 356 355 355
290 292 296 301 302 303 303 303 302 303 303 302 301 300 301 302 299 300 301 302 302 304 305 305 307 309 315 318 321 321 320 322 324 324 326 328 328 328 328 329 331 333 334 336 337 338 340 340 342 346 347 348 349 350 350 352 354 356 357 356 356 356 355
289 294 300 300 299 301 300 302 302 303 303 303 302 301 301 304 303 302 305 303 303 305 307 309 315 313 313 317 318 321 321 323 324 323 325 327 327 328 328 328 329 332 334 336 337 338 340 341 343 347 349 349 350 351 351 352 353 356 357 356 356 356 355
286 295 295 297 299 301 300 301 302 300 301 300 302 300 301 301 301 304 305 302 301 305 311 311 311 311 312 311 311 314 320 323 324 324 324 325 326 327 328 328 329 332 335 337 338 339 341 343 345 347 350 351 351 351 351 352 353 356 357 357 356 356 357
285 292 294 295 297 297 296 298 301 302 302 301 301 303 305 304 304 302 300 302 305 307 312 310 309 311 310 309 310 312 315 320 323 324 325 325 326 328 328 328 331 333 335 338 342 343 344 345 347 349 351 351 351 352 352 353 354 355 357 357 357 357 357
285 289 293 298 295 288 291 302 307 307 302 307 307 307 310 313 314 302 305 306 309 309 309 308 309 312 313 318 322 319 316 318 321 325 329 331 330 331 329 331 332 334 336 339 343 347 348 349 350 351 354 353 353 354 354 354 354 354 355 357 358 357 358
284 289 294 295 289 290 302 306 308 309 312 314 312 312 313 313 315 316 312 310 308 313 314 321 325 329 333 336 336 338 339 336 333 335 337 337 335 336 338 340 341 341 344 346 346 347 349 350 350 351 353 354 355 355 355 354 354 354 354 355 357 358 358
289 291 289 287 290 302 305 306 307 309 309 308 313 311 313 314 314 315 313 311 310 316 328 333 335 335 336 337 337 337 338 338 337 337 337 340 344 344 345 344 344 346 348 349 349 349 352 353 351 352 353 355 355 354 355 355 355 355 354 354 355 357 357
284 287 286 290 302 303 303 302 303 304 302 303 306 304 309 314 315 316 315 315 314 319 328 332 333 335 335 332 333 337 337 338 341 341 341 342 344 347 349 350 348 348 349 349 350 350 348 349 350 351 353 354 355 354 354 355 355 355 355 354 354 356 357
290 284 284 289 293 288 295 302 306 308 309 310 309 311 308 315 316 318 317 317 317 316 320 324 328 330 327 324 327 335 337 337 339 343 346 348 349 349 348 348 349 350 351 352 354 351 352 353 354 354 353 351 352 353 353 354 354 354 354 354 354 355 356
286 285 284 285 285 293 300 301 304 307 310 312 311 310 305 314 316 317 318 318 319 320 321 321 326 324 318 317 323 332 338 339 340 341 343 346 348 348 348 348 348 350 351 352 352 353 353 352 352 355 353 351 348 350 352 352 353 353 353 354 354 354 356
287 286 285 283 292 290 298 303 305 307 312 314 309 300 301 314 316 317 318 318 319 319 321 324 322 321 317 319 326 335 337 338 339 340 341 341 342 345 348 350 349 350 351 349 349 350 352 353 355 355 354 355 356 350 349 349 351 352 353 354 354 355 356
287 288 286 292 296 301 304 305 306 308 314 313 301 294 306 315 316 317 318 319 320 321 321 322 319 321 325 328 334 337 337 336 338 340 342 342 342 343 346 348 354 348 348 347 346 348 350 352 354 355 353 352 351 353 352 348 348 350 351 352 353 354 356
284 285 284 286 295 302 306 306 307 313 311 300 298 311 318 316 314 316 317 318 319 321 321 321 322 324 327 330 331 332 334 335 336 338 341 342 342 343 345 351 349 345 346 346 346 348 349 351 353 354 353 350 350 350 349 349 351 354 351 352 353 353 354
290 289 287 287 283 298 306 306 309 313 304 305 314 318 317 313 312 313 315 317 318 320 321 323 323 324 326 327 328 330 332 333 334 336 338 339 339 339 340 342 346 345 344 345 345 345 348 349 350 351 354 354 350 349 346 349 354 356 355 352 353 354 353
287 289 288 288 299 304 308 306 301 310 313 318 317 316 313 312 311 311 312 314 317 319 321 322 322 323 324 325 327 329 331 333 335 336 337 338 340 340 342 343 344 345 343 344 344 345 346 346 347 348 350 351 355 352 345 352 355 359 356 354 354 354 354
294 293 297 300 302 307 312 310 309 314 314 317 318 317 315 311 310 312 310 311 314 318 320 321 322 322 323 323 325 326 329 332 333 334 334 336 337 339 340 342 345 343 343 342 342 342 343 344 344 345 347 347 350 347 348 354 355 355 355 354 354 354 354
301 302 303 304 304 305 306 312 315 314 314 315 318 316 314 314 314 312 310 311 312 314 318 319 321 322 323 323 324 326 328 330 332 333 333 334 336 337 339 340 342 342 342 343 341 341 340 342 343 345 345 345 345 346 350 354 356 355 357 355 354 353 354
292 288 300 299 300 304 304 307 311 311 314 316 316 315 315 313 315 314 312 312 312 313 314 317 319 321 323 323 323 325 326 327 328 330 331 332 334 335 336 339 343 340 341 340 340 340 339 340 341 345 345 346 347 348 350 352 358 356 357 355 356 354 354
292 294 298 299 301 306 303 305 307 308 309 313 316 316 316 314 313 315 316 313 312 313 312 314 319 320 322 323 322 324 324 325 326 327 329 331 333 335 337 338 341 338 339 338 337 338 338 339 340 343 344 344 346 347 349 351 355 354 357 356 354 355 355
295 298 300 299 300 303 302 305 306 308 307 310 311 316 314 314 311 312 313 313 314 313 311 312 317 319 320 322 323 324 324 324 324 325 327 329 331 332 335 337 338 336 338 339 337 336 336 338 338 339 341 343 346 346 348 350 352 353 353 355 352 353 354
289 291 294 298 293 293 298 302 303 305 309 310 310 311 310 310 311 310 312 314 314 313 312 311 311 315 319 321 322 323 323 324 324 324 326 329 330 332 335 337 336 336 340 339 336 335 335 337 338 338 338 340 344 346 348 349 350 350 348 347 347 348 350
288 294 296 299 299 298 299 301 303 304 306 307 310 309 309 310 310 312 312 310 310 310 311 311 310 311 318 319 321 322 323 323 324 325 326 327 329 331 333 334 335 335 335 340 338 337 335 337 337 338 338 340 341 345 347 348 348 347 346 346 345 345 348
295 297 297 300 298 296 298 301 302 303 305 305 306 308 311 313 313 313 311 309 308 309 310 310 311 310 318 321 322 321 322 323 324 327 328 329 329 331 332 333 334 335 334 336 336 337 335 336 336 336 337 338 340 345 347 347 348 346 345 347 345 345 346
293 298 298 299 299 299 301 302 302 303 305 306 307 307 309 311 314 314 312 309 309 309 309 309 310 310 314 322 322 322 321 323 326 330 331 332 331 330 331 332 333 336 334 336 335 335 336 335 336 337 335 337 340 343 346 347 347 344 342 342 344 344 346
Wind_Speed
13 12 10 10 12 11 10 9 14 13 7 7 1 2 2 4 3 10 2 3 3 4 4 7 4 3 6 9 18 21 21 18 16 16 18 18 18 19 18 18 18 19 18 18 18 18 17 17 18 19 20 20 21 19 19 20 19 17 18 18 18 16 16
18 17 10 13 13 7 7 13 11 5 3 3 5 6 1 3 5 5 2 9 3 3 10 4 8 5 9 6 16 20 22 20 18 17 18 19 20 20 22 22 20 20 21 21 19 18 19 20 21 21 21 19 19 19 20 20 19 19 18 17 17 16 15
13 16 14 11 14 13 15 14 10 12 7 14 5 3 6 4 5 1 3 5 6 6 7 2 6 11 11 8 13 18 20 19 20 20 20 21 21 19 18 17 16 16 18 19 20 20 20 21 21 21 20 19 17 17 18 20 21 20 20 17 16 14 15
5 9 12 14 12 15 9 8 13 8 5 7 7 8 4 6 2 4 4 3 7 5 5 5 12 13 15 13 10 17 21 22 21 20 20 21 19 17 17 18 18 19 20 21 22 21 20 21 19 16 17 16 19 19 19 18 19 18 17 17 16 15 15
6 9 8 15 15 13 10 10 9 10 4 2 4 1 4 5 4 4 4 5 5 8 9 16 18 14 13 14 12 16 20 23 23 22 21 19 20 18 17 17 17 18 19 19 19 19 19 18 16 16 17 20 20 18 19 19 20 19 19 18 17 15 14
6 7 7 16 15 12 9 10 10 12 10 6 13 8 0 4 3 3 4 9 7 11 9 13 18 16 16 16 15 15 19 22 23 21 22 21 19 18 18 18 18 18 17 18 18 17 15 14 15 17 17 16 16 18 18 19 19 18 19 18 17 16 15
9 13 12 7 16 11 10 10 9 12 7 7 7 9 8 6 6 3 4 2 8 8 8 12 16 16 17 17 15 13 17 21 22 22 22 20 21 21 19 19 18 18 17 18 18 19 19 19 18 18 17 17 18 19 18 17 18 19 19 19 18 16 15
14 17 13 9 8 14 11 7 6 9 13 12 12 9 6 8 6 7 2 3 8 9 5 9 12 17 19 16 16 14 18 18 21 21 20 20 19 19 20 19 17 16 15 15 15 16 17 16 16 18 17 18 17 16 17 16 18 19 18 16 16 16 16
7 7 4 4 2 7 9 10 11 13 13 13 3 6 4 7 9 9 5 6 9 7 4 6 8 15 14 12 8 15 18 19 20 21 21 18 18 18 17 16 15 14 13 15 16 17 17 17 18 18 18 17 16 16 16 17 17 17 16 15 15 16 16
5 8 8 5 2 4 7 11 15 13 15 12 8 6 4 8 5 7 6 5 11 10 8 9 3 9 11 9 11 13 19 21 20 18 17 18 18 17 18 16 15 16 16 17 16 16 16 17 18 17 17 16 16 15 16 16 16 15 16 15 16 15 15
8 10 10 13 10 10 7 10 18 13 10 13 9 6 6 10 5 8 9 8 10 6 6 7 1 5 9 9 9 12 14 19 21 19 17 16 15 16 18 17 17 16 15 18 18 18 18 18 17 17 17 16 15 15 15 16 15 15 15 15 15 15 16
13 16 20 21 14 15 17 16 15 17 15 12 14 10 10 6 10 9 5 9 11 8 6 7 2 4 5 7 8 12 13 16 18 19 19 20 18 18 17 17 18 18 18 18 17 17 17 17 16 15 15 16 16 16 16 16 15 15 14 15 16 16 16
20 20 19 17 14 12 11 14 16 19 17 14 13 11 6 10 8 10 8 8 8 7 7 7 6 6 10 10 11 15 17 16 15 17 20 21 19 18 19 19 18 19 18 17 18 18 17 17 16 16 15 15 15 14 14 15 15 17 16 16 17 17 17
21 19 14 12 11 9 8 9 11 20 19 18 15 9 5 11 6 10 10 8 13 8 8 8 5 4 3 2 2 6 11 14 16 18 18 20 19 18 17 17 18 19 20 18 18 18 16 16 16 15 15 15 16 16 16 16 16 15 15 16 16 16 17
15 13 10 11 12 11 9 6 6 17 19 18 13 9 8 6 4 5 7 9 10 6 2 1 0 3 4 8 4 6 13 14 16 18 19 19 19 18 17 16 14 13 14 16 16 16 16 17 17 16 16 16 15 16 15 16 16 15 15 15 15 16 16
10 9 15 18 15 13 7 2 8 6 17 18 14 9 5 4 5 3 6 4 7 3 4 6 7 6 8 6 5 4 6 13 16 18 18 17 18 18 17 15 13 12 12 13 15 17 18 18 18 16 15 15 15 16 15 15 15 14 15 15 15 15 15
7 10 14 16 16 11 3 10 12 5 3 4 4 4 5 3 2 6 6 8 6 5 4 12 6 9 7 8 4 7 6 5 13 15 14 15 15 16 15 14 14 14 15 16 17 18 17 17 17 17 17 16 16 15 15 14 13 13 14 15 15 15 14
9 17 17 14 3 2 5 5 17 20 2 16 18 11 8 12 11 1 5 6 4 4 11 14 10 11 7 6 5 4 6 10 8 7 5 7 9 9 12 16 16 15 12 10 11 13 14 15 17 16 15 16 15 14 14 13 14 14 14 14 14 15 14
7 12 13 2 2 2 5 3 16 15 10 18 21 24 24 21 22 20 12 2 10 1 11 19 17 13 11 14 15 14 10 11 13 13 11 9 8 6 6 5 4 5 6 7 7 8 9 10 8 8 9 10 9 10 11 12 13 13 13 13 13 13 14
6 3 5 5 6 3 8 6 14 23 16 15 13 20 18 19 17 13 12 9 10 8 13 15 16 16 18 19 16 14 13 12 13 15 12 11 12 11 7 10 7 6 5 6 7 6 5 6 6 7 9 8 10 10 10 12 12 12 12 13 13 13 13
1 5 6 7 7 6 12 13 16 15 9 12 9 9 10 16 16 16 12 11 9 6 11 10 13 17 19 19 13 12 12 12 14 15 14 13 13 13 12 12 11 8 9 9 6 6 6 5 5 5 6 7 9 9 9 10 11 12 12 13 13 13 13
4 7 8 6 5 3 7 11 17 14 10 11 11 3 9 16 19 16 13 10 10 9 2 2 7 20 22 14 9 9 9 10 13 14 15 14 14 13 12 11 11 10 10 10 10 10 9 9 6 3 4 6 7 9 10 10 11 11 12 14 13 12 13
8 5 2 3 1 3 6 18 20 22 19 14 8 3 12 11 15 16 14 14 12 9 8 6 11 19 15 7 6 6 8 10 11 14 14 14 14 13 12 11 11 10 10 10 10 10 11 10 6 4 4 5 6 7 8 10 11 12 13 13 13 13 12
5 5 4 3 2 2 15 19 19 21 20 19 3 7 5 10 13 14 13 14 14 12 11 11 19 13 14 7 5 4 8 11 11 12 13 14 14 13 12 11 10 10 11 14 14 13 12 8 6 5 3 4 4 4 5 5 7 11 14 13 11 9 10
5 5 4 2 2 3 12 16 22 22 17 5 11 7 4 6 9 11 11 12 13 12 14 13 16 10 8 6 6 8 8 13 14 14 13 13 13 14 14 12 10 11 10 10 10 9 7 7 7 6 5 4 3 2 3 4 6 7 4 3 6 9 9
5 6 6 4 3 2 11 18 18 18 4 9 10 3 4 5 8 9 11 13 12 12 15 13 12 9 11 11 11 12 12 12 11 12 13 14 14 14 13 14 12 11 10 10 11 12 11 11 9 7 5 3 1 0 0 1 4 5 6 7 7 6 9
2 3 2 3 4 6 16 20 9 19 10 5 4 3 5 6 7 9 11 12 13 11 12 13 12 12 12 12 12 12 12 12 13 13 14 14 13 13 13 13 13 11 10 9 9 8 8 9 8 9 8 5 3 1 2 3 5 4 4 6 7 8 7
2 2 3 2 3 3 10 11 7 7 8 5 5 4 5 8 8 8 8 12 12 13 10 10 12 12 11 12 11 10 11 11 12 12 12 11 11 11 10 9 8 9 7 6 6 6 7 7 7 7 8 7 6 5 4 6 5 5 4 6 7 8 8
0 1 1 2 5 5 4 6 5 5 5 7 7 6 6 8 10 8 9 11 11 12 11 10 10 11 11 10 10 10 10 10 10 10 10 10 9 8 8 8 6 6 5 4 4 5 6 6 6 5 6 7 7 7 7 6 6 6 3 5 6 7 7
7 3 5 4 4 4 4 9 6 6 7 8 7 6 5 8 9 10 9 10 10 11 11 11 10 10 8 10 10 11 11 11 11 11 11 10 9 8 5 6 7 7 7 7 6 6 6 7 7 6 6 6 7 7 7 6 6 6 2 4 5 6 6
4 2 6 10 12 7 12 8 8 9 8 6 6 6 5 6 7 10 11 9 10 9 11 10 9 10 10 8 8 8 8 9 9 10 10 10 9 9 8 5 5 7 7 7 7 7 8 6 6 7 7 6 5 6 6 7 7 5 1 3 4 4 6
5 3 4 7 9 2 8 7 5 7 9 7 5 6 6 6 7 6 7 7 9 8 10 9 8 9 9 10 8 8 7 7 7 7 8 8 9 9 8 7 6 7 7 6 6 6 5 5 5 5 5 5 6 7 7 7 7 4 3 0 3 4 5
6 7 3 13 9 2 6 7 5 4 7 8 6 3 5 8 9 6 4 4 6 7 7 7 7 8 8 7 7 7 7 7 7 7 7 7 6 6 7 6 4 5 4 4 4 4 4 4 4 4 5 5 5 7 7 6 6 2 2 3 1 1 2
6 5 6 10 6 7 9 5 8 8 7 4 6 10 9 8 9 7 4 4 5 5 6 5 6 6 4 5 5 6 5 6 5 6 7 6 7 7 6 6 7 5 5 5 4 4 4 4 5 4 4 5 6 6 5 5 6 1 3 3 3 3 3
11 12 12 5 3 7 8 6 6 8 7 8 2 1 6 9 9 9 6 8 7 9 8 6 5 6 4 4 4 5 6 6 7 6 5 6 8 9 9 10 11 7 4 4 3 2 3 4 4 5 4 4 5 6 5 4 5 3 3 4 3 3 4
18 14 9 3 5 9 11 10 6 6 8 9 9 3 2 1 5 7 8 8 7 6 6 8 6 5 5 3 4 5 5 6 6 8 8 8 7 8 9 8 7 6 4 3 2 2 3 4 4 3 3 4 4 5 4 4 4 3 0 5 4 4 4
16 13 11 12 14 15 11 11 9 4 5 10 7 4 6 1 3 6 8 8 6 7 6 7 9 6 6 4 4 5 5 6 7 10 10 9 10 9 8 8 8 6 3 1 1 2 3 3 3 3 3 3 4 5 3 3 4 4 2 3 5 4 4
Wind_Direction
222 217 194 202 167 199 188 184 208 213 136 174 198 320 250 110 118 238 210 277 268 299 311 239 236 284 237 159 178 180 190 195 182 183 186 188 186 185 185 188 190 187 185 187 186 185 185 183 182 184 183 181 182 181 183 185 185 183 185 186 188 190 191
216 217 211 203 193 148 151 203 207 117 145 115 173 206 288 173 170 249 223 226 303 141 251 277 234 213 252 171 179 182 186 184 179 188 189 189 189 188 189 190 188 186 185 186 186 187 186 185 185 186 185 183 181 180 182 184 185 187 188 186 187 188 189
211 204 212 230 215 177 191 202 137 179 155 210 193 142 217 182 207 238 289 217 244 191 240 300 209 221 233 223 183 177 184 179 184 188 191 192 192 189 189 187 185 186 188 187 187 188 187 188 188 186 182 179 180 182 184 184 187 189 188 188 188 188 188
228 203 187 216 216 207 198 130 179 162 152 199 164 197 156 135 234 165 290 185 239 208 216 212 239 218 214 222 168 184 180 182 187 187 190 192 191 189 187 188 186 187 189 188 187 187 187 188 186 182 179 180 182 183 182 187 189 188 187 189 188 189 189
303 219 189 209 209 195 185 175 181 184 202 170 131 277 176 163 168 188 175 234 261 251 216 221 225 220 220 210 189 185 182 184 185 186 190 189 189 190 189 187 186 189 189 189 188 189 191 188 183 180 180 184 185 183 186 186 186 187 188 190 188 191 187
291 278 219 209 207 206 195 177 187 186 159 135 189 246 189 174 120 195 169 237 258 245 221 219 221 219 218 214 202 178 185 182 182 187 190 185 187 188 188 187 187 188 188 188 188 189 186 184 186 186 186 186 183 187 189 187 186 187 189 189 191 190 190
267 266 279 254 210 205 205 165 197 187 172 151 169 202 214 190 220 167 159 175 266 240 202 203 220 221 216 215 202 173 180 179 185 189 189 186 183 184 188 186 188 187 186 185 186 185 185 187 188 189 187 187 189 191 187 187 186 190 189 190 191 190 191
259 257 262 284 258 204 206 198 162 180 192 187 191 181 178 186 195 228 269 252 257 277 212 199 225 222 217 208 200 170 173 178 186 189 190 185 184 188 187 184 185 184 183 181 183 187 186 186 188 190 192 193 192 190 187 186 190 190 190 190 190 189 191
307 305 339 288 265 222 205 199 195 194 197 185 150 130 142 184 211 193 165 225 263 273 297 294 217 224 213 198 178 158 166 180 187 190 189 183 182 184 183 179 179 176 174 178 186 187 186 186 188 192 194 194 192 189 187 189 191 189 189 188 189 191 192
232 206 211 229 281 267 235 209 199 191 189 178 137 180 166 194 242 183 205 235 254 278 313 329 256 180 182 175 162 170 167 178 184 188 186 183 180 179 178 178 173 174 179 184 185 186 186 186 188 191 193 193 192 190 191 188 188 187 189 187 189 190 192
264 279 288 279 312 290 290 231 201 186 181 180 181 127 140 192 202 187 219 207 260 301 296 316 295 152 165 149 143 161 171 175 177 178 181 184 179 175 176 176 179 180 181 184 185 185 187 186 187 188 190 189 190 191 190 189 189 188 186 186 187 189 192
276 287 277 283 290 277 274 274 217 190 181 178 185 175 204 171 120 216 241 222 228 242 271 284 255 111 125 130 140 160 166 173 176 177 179 183 180 176 178 180 179 181 184 185 184 186 186 188 186 184 186 187 189 190 190 189 187 186 186 185 187 190 191
298 284 277 268 267 257 264 275 227 194 188 181 184 204 189 150 173 196 231 217 216 232 238 245 233 180 158 161 160 168 176 172 171 173 178 181 182 179 179 181 181 185 184 183 184 185 188 185 183 181 183 187 189 191 190 188 187 188 184 185 188 190 191
296 289 284 300 275 261 265 296 221 189 191 196 188 187 178 185 177 197 202 187 216 209 223 228 235 228 137 115 121 127 145 167 170 171 177 181 182 180 181 185 187 188 186 183 184 184 183 184 184 181 183 186 188 189 190 189 190 188 182 187 188 191 194
297 285 308 332 339 320 295 308 310 194 191 201 191 174 195 211 228 190 170 174 225 251 263 198 81 67 59 70 60 159 162 159 166 171 176 180 183 181 183 186 190 193 188 184 181 181 183 186 185 183 185 186 188 190 190 189 189 186 184 187 190 192 196
300 310 346 330 323 309 276 320 355 223 190 198 195 182 169 156 217 185 121 169 239 293 75 80 70 67 84 99 100 86 163 164 167 174 176 176 178 182 185 183 181 180 182 181 182 185 187 188 186 184 183 185 187 192 188 189 188 183 186 188 190 194 196
269 289 326 324 312 321 20 15 352 303 124 100 163 158 104 29 280 141 163 214 217 173 143 93 67 80 72 62 51 104 93 155 170 165 165 172 176 181 180 176 177 181 182 184 186 187 187 186 185 189 184 183 189 189 186 187 183 185 187 188 191 194 195
290 312 322 309 323 101 56 346 20 3 28 85 67 53 12 6 33 240 248 214 147 166 113 102 90 67 48 68 36 10 114 112 89 83 105 149 167 168 175 176 179 184 181 177 181 183 184 186 188 185 182 186 188 184 182 181 185 188 187 190 190 193 194
293 313 328 261 212 214 287 340 28 13 31 68 81 49 31 11 1 352 355 90 109 64 105 108 103 101 85 64 50 46 39 76 89 83 72 68 81 84 91 91 118 143 155 156 159 171 183 183 174 167 183 187 178 178 178 183 188 188 192 191 191 193 194
280 311 357 193 194 230 328 0 19 1 7 3 22 52 22 14 5 349 15 354 90 114 104 101 103 94 87 66 49 44 47 55 78 83 78 75 72 74 72 88 75 80 101 129 139 144 134 135 152 167 176 169 169 182 178 184 188 192 193 195 195 193 194
325 330 288 255 324 315 1 1 357 352 339 323 334 78 35 11 356 4 360 18 19 100 105 103 105 96 75 68 47 30 39 54 67 77 81 78 77 78 71 73 74 75 73 68 71 90 92 108 124 155 161 161 171 172 181 191 190 194 196 200 199 194 194
18 350 329 345 36 342 302 332 315 322 299 300 278 336 52 1 359 359 3 21 29 345 339 137 107 81 72 58 45 15 29 43 67 70 71 70 70 69 69 65 64 61 63 65 61 71 76 68 54 44 125 160 167 178 188 191 191 198 200 205 201 195 196
318 319 313 286 6 254 9 326 321 319 321 309 289 112 52 357 351 355 353 18 25 21 6 314 81 78 77 72 42 4 33 45 53 69 66 67 66 64 61 60 62 54 56 64 64 60 54 43 17 35 61 122 149 185 191 192 194 198 205 207 203 199 195
271 294 306 285 257 285 320 319 318 315 315 305 223 74 45 330 342 349 0 21 23 25 7 49 58 70 94 79 47 34 49 58 53 60 63 59 58 57 52 50 54 56 51 50 46 44 43 29 21 34 61 85 106 149 183 183 200 208 208 206 202 197 190
277 286 273 291 346 322 318 319 316 316 302 312 69 75 69 296 335 358 9 19 29 27 40 38 71 40 64 78 71 52 44 55 54 54 57 61 59 55 47 39 33 44 48 54 54 46 38 29 21 20 25 62 99 123 154 166 208 227 234 220 201 189 185
264 263 262 238 178 231 323 322 312 313 342 48 80 70 269 310 348 12 19 29 24 34 48 52 58 53 48 47 43 41 40 50 55 56 55 52 49 49 48 42 38 32 32 39 42 35 25 22 17 17 25 35 99 120 105 222 228 219 207 195 194 196 188
238 253 278 13 356 323 340 324 341 11 57 46 357 358 348 355 12 21 28 31 28 22 49 51 55 50 45 46 42 37 29 36 45 50 54 52 49 43 40 37 32 36 34 33 42 44 31 27 18 7 12 19 5 38 18 298 296 273 220 199 186 185 192
296 343 52 41 12 293 322 3 45 357 42 52 29 3 338 15 25 26 28 31 30 27 36 41 46 43 42 37 37 43 39 34 32 39 47 57 59 53 48 54 43 39 39 33 34 32 30 24 21 19 22 17 15 20 348 319 317 301 229 195 186 185 188
138 236 342 312 257 170 255 63 8 354 36 48 42 24 6 3 20 14 38 29 25 30 27 36 35 43 36 33 27 36 34 38 38 42 44 43 43 48 51 45 51 53 54 60 55 43 31 19 19 20 23 20 8 0 328 325 319 323 259 189 182 188 189
277 261 193 269 308 326 51 59 40 32 18 17 40 42 18 10 5 9 29 24 26 26 25 35 30 30 21 30 23 25 24 26 22 25 30 34 40 37 38 46 41 40 39 50 51 39 24 13 8 10 12 20 5 330 318 321 317 318 268 178 189 191 186
359 304 345 360 350 22 58 66 35 28 24 15 6 40 26 11 27 16 2 23 24 24 25 29 34 27 15 18 23 27 25 23 18 18 20 19 25 29 21 9 46 44 47 43 40 34 21 3 6 3 0 356 339 327 334 323 320 317 25 184 183 185 180
304 283 327 4 341 82 55 66 22 47 23 3 25 9 41 22 24 39 1 353 28 20 29 16 23 27 20 23 12 19 20 17 12 12 14 14 14 13 19 4 34 39 39 45 40 35 22 350 353 3 352 344 332 335 333 332 325 324 27 21 188 184 182
297 295 10 0 340 11 54 51 35 25 41 17 4 345 360 11 16 14 8 8 25 25 31 23 22 23 15 19 17 16 8 7 6 5 5 6 9 10 18 9 22 47 43 39 34 35 2 339 342 5 343 325 331 334 333 330 327 348 41 32 37 151 180
311 315 357 7 358 316 326 6 1 352 1 13 30 346 346 356 347 347 17 18 23 33 23 28 29 22 5 12 11 14 360 357 355 2 3 3 1 0 1 13 15 28 35 39 24 6 335 345 335 339 330 326 326 322 332 337 333 322 87 55 56 52 79
284 290 310 290 265 280 268 302 338 333 329 325 33 103 345 329 339 336 11 25 22 17 2 2 27 12 356 7 13 10 358 349 344 351 7 3 359 357 3 7 1 358 4 11 23 352 333 337 332 336 337 336 323 323 325 338 346 311 116 92 79 69 93
278 275 272 268 302 284 291 294 304 309 313 316 310 284 199 276 333 356 12 14 9 3 354 346 357 11 342 357 20 6 347 345 345 348 348 357 6 1 3 2 346 339 346 13 24 317 318 330 333 326 332 336 326 320 326 344 4 329 79 122 115 117 113
280 291 293 294 289 282 277 283 284 282 301 295 287 318 322 103 96 24 13 1 346 348 345 340 333 346 347 343 10 1 346 341 349 352 352 354 358 2 350 344 336 321 297 252 278 306 321 333 324 324 340 325 331 328 329 17 34 346 18 83 118 120 125